Address 0xe6b5d15a9c0c87fc7bb61bb99349966f6a88fa39 1

 
Txn Hash
Block
From
To
Value [Txn Fee]
0xf12a5d4d2a84f6126e2af4b1ad3f05216d892c9c4e62040ea1b4a0471f707fda95051972021-07-26 22:20:267 days 20 hrs ago0xe6b5d15a9c0c87fc7bb61bb99349966f6a88fa39OUT 0x18153f9103cb4b6e1c2c89a0f87ba10baf9927230 BNB0.00119753
0x9ec96178c0c92e6806d4753d22d91feb4f2c2346565fa64a06e0a338521413d195051862021-07-26 22:19:537 days 20 hrs ago0xe6b5d15a9c0c87fc7bb61bb99349966f6a88fa39OUT PancakeSwap: Router v20 BNB0.0009583
0x6523fee037be9eaa666d8714bbe0605fa62e922cb579fe6707c3f6d6bf97db1395051662021-07-26 22:18:537 days 20 hrs ago0xe6b5d15a9c0c87fc7bb61bb99349966f6a88fa39OUT PancakeSwap: Router v20 BNB0.00060014
0xbda30639d3ec625a0b75b74c892cddaa1f23d446c363278a958aa71d9cc92cc995051452021-07-26 22:17:507 days 20 hrs ago0xe6b5d15a9c0c87fc7bb61bb99349966f6a88fa39OUT 0x18153f9103cb4b6e1c2c89a0f87ba10baf9927230 BNB0.00114314
0x9e87acf1bd69681a88a0033ff13a59fd899aac4845deb411303a2eb91975eeb694586952021-07-25 6:46:439 days 12 hrs ago0xe6b5d15a9c0c87fc7bb61bb99349966f6a88fa39OUT 0x18153f9103cb4b6e1c2c89a0f87ba10baf9927230 BNB0.00119753
0x6dd59c5a56a5b93b657dbe7b06d65779e8124d3bd3ee1255f3ad0c7da2ee839a94586772021-07-25 6:45:499 days 12 hrs ago0xe6b5d15a9c0c87fc7bb61bb99349966f6a88fa39OUT PancakeSwap: Router v20 BNB0.00095836
0xc78ef1992804d663425538c10bff0d2c7e50f3a0d3056738e4f203b16fd70d5d94586562021-07-25 6:44:469 days 12 hrs ago0xe6b5d15a9c0c87fc7bb61bb99349966f6a88fa39OUT PancakeSwap: Router v20 BNB0.0006002
0x73d7e0c3875660f4310c663f01958f403baebd849aeeadccee9d832323717de094586362021-07-25 6:43:469 days 12 hrs ago0xe6b5d15a9c0c87fc7bb61bb99349966f6a88fa39OUT 0x18153f9103cb4b6e1c2c89a0f87ba10baf9927230 BNB0.00114314
0xb53c1f07509071074723434c9a03a6f9da27a689008789a98cd40b54858ef85d93177112021-07-20 8:55:3114 days 9 hrs ago0xe6b5d15a9c0c87fc7bb61bb99349966f6a88fa39OUT 0x18153f9103cb4b6e1c2c89a0f87ba10baf9927230 BNB0.00119753
0x02a39f8a95813396a4a225136fae041c48aa673b45821e1c75f64334160d15c993176922021-07-20 8:54:3414 days 9 hrs ago0xe6b5d15a9c0c87fc7bb61bb99349966f6a88fa39OUT PancakeSwap: Router v20 BNB0.00095836
0x5818ff45abec3018724262415cea0120af65d6ebf95776039a11c6ade62d271193176722021-07-20 8:53:3414 days 9 hrs ago0xe6b5d15a9c0c87fc7bb61bb99349966f6a88fa39OUT PancakeSwap: Router v20 BNB0.0006002
0xcf6e4062d1b01e8c90b5b528339ee14855df9bdb363fa7c414ba875ede3ea4a993176522021-07-20 8:52:3414 days 9 hrs ago0xe6b5d15a9c0c87fc7bb61bb99349966f6a88fa39OUT 0x18153f9103cb4b6e1c2c89a0f87ba10baf9927230 BNB0.00114314
0xca2231984b3a8e26768701c5ed26cb8c2d3c44ec17ca514baf7076f67ab0f62e91489892021-07-14 12:13:3020 days 6 hrs ago0xe6b5d15a9c0c87fc7bb61bb99349966f6a88fa39OUT 0x18153f9103cb4b6e1c2c89a0f87ba10baf9927230 BNB0.00119753
0x79c61d237f57557a324e4b2b609a22d532d9b2e962fbcbc3680320d0a9afc09c91489712021-07-14 12:12:3620 days 6 hrs ago0xe6b5d15a9c0c87fc7bb61bb99349966f6a88fa39OUT PancakeSwap: Router v20 BNB0.00095836
0x8773daca532e65133327fd75f250e463ca5341f3c724e64a866a8f55f72c3a6b91489502021-07-14 12:11:3320 days 6 hrs ago0xe6b5d15a9c0c87fc7bb61bb99349966f6a88fa39OUT PancakeSwap: Router v20 BNB0.0006002
0xd629eb3523db12d94e33fd3e89bac64d259a8c1348dc5162b342637063cebbae91489302021-07-14 12:10:3320 days 6 hrs ago0xe6b5d15a9c0c87fc7bb61bb99349966f6a88fa39OUT 0x18153f9103cb4b6e1c2c89a0f87ba10baf9927230 BNB0.00114314
0xa0d86b9e3278f4dc896871aa59b5ca8447d5cf1044ee486d2afadc52b4c1851f90752272021-07-11 22:45:2322 days 20 hrs ago0xe6b5d15a9c0c87fc7bb61bb99349966f6a88fa39OUT 0x18153f9103cb4b6e1c2c89a0f87ba10baf9927230 BNB0.00119753
0x6f68e338c6c4ff914fb7656c432bc39a508df1ae700fda6bdd7a93e1e91bd22b90752082021-07-11 22:44:2622 days 20 hrs ago0xe6b5d15a9c0c87fc7bb61bb99349966f6a88fa39OUT PancakeSwap: Router v20 BNB0.0009583
0x06cf22ad46571ceb571294910d766161a82701340912a9d1c6abdc978bd6ddf890751872021-07-11 22:43:2322 days 20 hrs ago0xe6b5d15a9c0c87fc7bb61bb99349966f6a88fa39OUT PancakeSwap: Router v20 BNB0.00060014
0xf9553c6b69e863599bbec38a09ce60282210f53f8669aaae42f9d9e3e81897ad90751672021-07-11 22:42:2322 days 20 hrs ago0xe6b5d15a9c0c87fc7bb61bb99349966f6a88fa39OUT 0x18153f9103cb4b6e1c2c89a0f87ba10baf9927230 BNB0.00114314
0x690fa2873fd6ea8cb66f74e0c42f34f4ed8d59c0f545556023aba9b8b43fab9a90393892021-07-10 16:53:0924 days 1 hr ago0xe6b5d15a9c0c87fc7bb61bb99349966f6a88fa39OUT 0x18153f9103cb4b6e1c2c89a0f87ba10baf9927230 BNB0.00119753
0x4a053152b61b7f7a1c30ccaeb6d6e9a659379de99cd60988e72647e8c93124af90393702021-07-10 16:52:1224 days 1 hr ago0xe6b5d15a9c0c87fc7bb61bb99349966f6a88fa39OUT PancakeSwap: Router v20 BNB0.0009583
0x0fb66d67146f56a1d1c745b30adb9079c4ede2938273c3dd690d4b8cc18a74c190393492021-07-10 16:51:0924 days 1 hr ago0xe6b5d15a9c0c87fc7bb61bb99349966f6a88fa39OUT PancakeSwap: Router v20 BNB0.00060014
0x9ffe13709dfe80c59c8bebc365c721fea6bdbab83ff30dbb1e14e110eec222e790393292021-07-10 16:50:0924 days 1 hr ago0xe6b5d15a9c0c87fc7bb61bb99349966f6a88fa39OUT 0x18153f9103cb4b6e1c2c89a0f87ba10baf9927230 BNB0.00114314
0x1cf1cffc2d27dff5f6e966e67c64a5b1ad420cda5c8e594ef48f02d94a3f6a5f90036522021-07-09 11:05:5725 days 7 hrs ago0xe6b5d15a9c0c87fc7bb61bb99349966f6a88fa39OUT 0x18153f9103cb4b6e1c2c89a0f87ba10baf9927230 BNB0.00119753
[ Download CSV Export 
Parent Txn Hash Block From To Value
Loading

Contract Name:
0 BNB

Compiler Version
0

Optimization Enabled:
0 BNB

Other Settings:
-NA-
Block Transaction Gas Used Reward
Age Block Fee Address BC Fee Address Voting Power Jailed Incoming
Block Uncle Number Difficulty Gas Used Reward
Loading
Loading
Make sure to use the "Vote Down" button for any spammy posts, and the "Vote Up" for interesting conversations.